星链-30370 (STARLINK-30370 )

导读

STARLINK-30370是美国太空探索技术公司(SpaceX)星链(Starlink)星座中的一颗卫星,由美国于2023年9月1日发射。星链星座旨在构建全球卫星互联网,该卫星入轨后,助力为全球提供低延迟、高速率的宽带互联网服务,尤其改善偏远地区的网络覆盖。

基本信息
目录编号:
57751
目录名称:
STARLINK-30370
国际标识:
2023-131V
轨道中心:
EARTH
卫星名称:
星链-30370
卫星全名:
星链-30370 (STARLINK-30370 )
卫星状态:
在轨 (已飞行1021 天)
发射日期:
2023-09-01 UTC
国别 :
美国 (US)
星等 :
--
轨道信息
数据来源 国际轨道数据
星历时间: 2026-06-17T01:18:50+0800
1天前
查看轨道信息
半长轴: 6849.583km
偏心率: 0.0004017
轨道倾角: 43.000°
近地点辐角 302.581°
升交点赤经 316.872°
平近点角 57.466°
近地点: 468.694km
远地点: 474.198km
周期: 94.028分钟
每日圈数: 15.314632
详细信息
固有亮度:
5
最大亮度:
0.3
卫星平台:
Starlink v2.0 mini
覆盖范围:
全球
运营商:
太空探索技术公司
运营商所在国:
美国
制造商(研发单位):
太空探索技术公司
制造商所在国:
美国
使用方式:
暂无
卫星简介
星链(Starlink)计划是由太空探索技术公司(SpaceX)提出的一个巨型低轨卫星互联网星座项目,计划在2019年至2024年间在太空搭建由约1.2万颗卫星组成的“星链”网络,其中1584颗将部署在地球上空550千米处的近地轨道,并从2020年开始工作。该卫星仍在工作。
2D轨道图
3D轨道图
轨道高度分析图
轨道倾角分析图
轨道综合分析图
查看轨道综合分析图